Weather Roundup
Issued by NWS

Home | Current Version | Previous Version | Graphics & Text | Print | Product List | Glossary Off
Versions: 1 2 3 4 5 6 7 8 9 10 11 12 13 14 15 16 17 18 19 20 21 22 23 24 25 26 27 28 29 30 31 32 33 34 35 36 37 38 39 40 41 42 43 44 45 46 47 48 49 50

000
NZUS93 KARX 220559
HRRWXR

CURRENT HOURLY OBSERVATIONS ACROSS
MUCH OF THE UPPER MISSISSIPPI VALLEY
NATIONAL WEATHER SERVICE LA CROSSE WI
100 AM CDT FRI AUG 22 2014


...SOUTHEAST MINNESOTA...


CITY           SKY/WX    TMP DP  RH WIND       PRES   REMARKS
ROCHESTER      FAIR      73  71  93 S7        29.89S
ROCHESTER/MAYO MOCLDY    75  72  88 SE5       29.88S
WINONA         FAIR      73  70  88 CALM      29.87F
AUSTIN         NOT AVBL
ALBERT LEA     FAIR      77  73  88 SW3       29.88S
DODGE CENTER   FAIR      75  73  94 SW9       29.88S
PRESTON        FAIR      72  72 100 S6        29.90F
OWATONNA       FAIR      73  72  94 CALM      29.88R
FARIBAULT      FAIR      75  70  83 CALM      29.87R
$$

...ELSEWHERE IN MINNESOTA...


CITY           SKY/WX    TMP DP  RH WIND       PRES   REMARKS
MINNEAPOLIS    FAIR      73  72  96 NW7       29.85R
INTNL FALLS    CLOUDY    64  60  87 CALM      29.93R
DULUTH         DRIZZLE   63  61  93 E8        29.91S FOG
RED WING       FAIR      77  73  88 CALM      29.84S
REDWOOD FALLS  FOG       73  73 100 CALM      29.87S VSB 1/2
MANKATO        MOCLDY    75  70  83 CALM      29.87R
WORTHINGTON    FAIR      68  10  10 N5        29.91S
FAIRMONT       FAIR      70  64  83 MISG      29.88S
$$

...SOUTHWEST WISCONSIN...


CITY           SKY/WX    TMP DP  RH WIND       PRES   REMARKS
LA CROSSE      FAIR      76  71  85 S7        29.87F
PRAIRIE DU CHI FAIR      73  70  91 CALM      29.89F
BOSCOBEL       FOG       71  69  93 CALM      29.90F VSB 1/2
LONE ROCK      NOT AVBL
PLATTEVILLE    MOCLDY    73  72  96 E5        29.94S
FORT MC COY    FAIR      69  67  95 CALM      29.91S
VIROQUA        FAIR      71  71 100 SE5       29.92F
WIS DELLS      FAIR      71  68  93 CALM      29.93S FOG
$$

...ELSEWHERE IN WISCONSIN...


CITY           SKY/WX    TMP DP  RH WIND       PRES   REMARKS
MILWAUKEE      FOG       70  68  93 SE5       29.93F VSB 1/4
MADISON        FAIR      74  72  93 SE5       29.91F
GREEN BAY      CLOUDY    67  65  93 NE5       29.94F
EAU CLAIRE     FAIR      73  72  96 SE6       29.86S
BLACK RVR FLS  FAIR      72  72 100 CALM      29.88F FOG
MEDFORD        FOG       65  65 100 SE3       29.94R VSB 1/2
WAUSAU         CLOUDY    65  65 100 E8        29.93S FOG
WIS RAPIDS     CLOUDY    71  69  93 SE6       29.93F
MARSHFIELD     CLOUDY    72  70  93 E9        29.92S FOG
RICE LAKE      FAIR      69  68  95 CALM      29.89S FOG
$$

...NORTHEAST IOWA...


CITY           SKY/WX    TMP DP  RH WIND       PRES   REMARKS
WATERLOO       FAIR      73  72  96 S3        29.87F
DUBUQUE        FAIR      70  70 100 CALM      29.92F
DECORAH        FAIR      72  72 100 SE5       29.89F FOG
MASON CITY     FAIR      71  71 100 CALM      29.90S FOG
CHARLES CITY   FAIR      72  72 100 S5        29.90S FOG
OELWEIN        FAIR      72  72 100 SE7       29.91F FOG
$$

...ELSEWHERE IN IOWA...


CITY           SKY/WX    TMP DP  RH WIND       PRES   REMARKS
DES MOINES     FAIR      80  76  87 SE7       29.85F
IOWA CITY      FOG       72  72 100 CALM      29.89F VSB 1/2
FORT DODGE     FAIR      75  72  88 S3        29.87F
MARSHALLTOWN   FAIR      73  72  96 E7        29.87F FOG
CEDAR RAPIDS   FAIR      73  73 100 E6        29.89S FOG
$$

...NORTHERN ILLINOIS...


CITY           SKY/WX    TMP DP  RH WIND       PRES   REMARKS
CHICAGO-OHARE  TSTM      75  70  84 NW10      29.93F
DUPAGE         CLOUDY    74  72  93 N8        29.93R
CHICAGO-MIDWAY CLOUDY    76  73  91 SE8       29.91F
MOLINE         FAIR      74  72  93 CALM      29.88F
ROCKFORD       CLOUDY    74  72  93 SE6       29.92F
STERLING       MOCLDY    73  72  94 SE6       29.90F
PEORIA         FAIR      81  75  82 SW8       29.90F
$$

NOTE: "FAIR" INDICATES FEW OR NO CLOUDS BELOW 12,000 FEET WITH NO
SIGNIFICANT WEATHER AND/OR OBSTRUCTIONS TO VISIBILITY. WIND
SPEEDS ARE IN MILES-PER-HOUR.



USA.gov is the U.S. government's official web portal to all federal, state and local government web resources and services.